Flag for Germany Weather past 2 weeks in Landsberg am Lech, Bavaria, Germany

Now
63 °F

Passing clouds.


Feels Like: 63 °F
Forecast: 57 / 67 °F
Wind: 3 mph from South

Location: Landsberg

Current Time: Jul 28, 2014 at 9:28:01 AM

Latest Report: Jul 28, 2014 at 8:20 AM


Visibility: N/A

Pressure: 29.98 "Hg

Humidity: 88%

Dew point: 59 °F

Location of Landsberg am LechLocation

Historic Weather in Landsberg am Lech — Graph

°F

Landsberg am Lech temperature yesterday

Maximum temperature yesterday: 68 °F (at 5:20 PM)
Minimum temperature yesterday: 59 °F (at 12:20 AM)
Average temperature yesterday: 62 °F

Past Weeks' High & Low Weather Summary

 TemperatureHumidityPressure
High88 °F (Jul 19, 4:20 PM)100% (Jul 22, 1:20 AM)30.24 "Hg (Jul 22, 1:20 AM)
Low54 °F (Jul 16, 5:20 AM)27% (Jul 19, 5:20 PM)29.86 "Hg (Jul 20, 6:20 AM)
Average66 °F72%30.02 "Hg
* Reported Jul 13 8:20 AM — Jul 28 8:20 AM, Landsberg am Lech, Weather by CustomWeather, © 2014

Note: Actual official high and low records may vary slightly from our data, if they occured in-between our weather recording intervals... More about our weather records

Advertising

Landsberg am Lech weather history for previous 24 hours

 ConditionsComfort  
Time TempWeatherWind HumidityBarometerVisibility
8:20 AM
Jul 28
63 °FPassing clouds.3 mph88%29.98 "HgN/A
7:20 AM57 °FPassing clouds.3 mph94%29.98 "HgN/A
6:20 AM57 °FFog.No wind94%29.98 "HgN/A
5:20 AM57 °FPassing clouds.2 mph94%29.98 "HgN/A
4:20 AM61 °FPassing clouds.5 mph88%29.98 "HgN/A
3:20 AM61 °FPassing clouds.3 mph88%29.98 "HgN/A
2:20 AM61 °FPassing clouds.7 mph88%30.01 "HgN/A
1:20 AM61 °FPartly cloudy.7 mph88%30.04 "HgN/A
12:20 AM63 °FPartly cloudy.6 mph83%30.04 "HgN/A
11:20 PM
Jul 27
63 °FPassing clouds.7 mph88%30.07 "HgN/A
10:20 PM63 °FPassing clouds.6 mph88%30.04 "HgN/A
9:20 PM64 °FScattered showers. Partly sunny.8 mph83%30.04 "HgN/A
8:20 PM64 °FBroken clouds.6 mph83%30.04 "HgN/A
7:20 PM66 °FBroken clouds.9 mph78%30.04 "HgN/A
6:20 PM66 °FScattered clouds.12 mph78%30.04 "HgN/A
5:20 PM68 °FBroken clouds.14 mph78%30.01 "HgN/A
4:20 PM66 °FBroken clouds.13 mph78%30.04 "HgN/A
3:20 PM64 °FBroken clouds.10 mph83%30.04 "HgN/A
2:20 PM64 °FBroken clouds.9 mph83%30.04 "HgN/A
1:20 PM64 °FMore clouds than sun.10 mph83%30.04 "HgN/A
12:20 PM64 °FMore clouds than sun.8 mph83%30.04 "HgN/A
11:20 AM63 °FMostly cloudy.8 mph88%30.04 "HgN/A
10:20 AM63 °FMostly cloudy.8 mph88%30.04 "Hg5 mi
9:20 AM61 °FMostly cloudy.8 mph94%30.01 "Hg4 mi
Weather by CustomWeather, © 2014

See weather overviewHow to use our weather pages